This demonstration page uses our WeatherBlox Daily Observations layout. Learn more.

Hourly Observations for July 11, 2015

Temp ( °F °C ) Dew Point ( °F °C ) Humidity (%) Winds ( mph kmh ) Pressure ( in mb ) Visibility ( mi km ) Precip ( " mm )
12:15 am 00:15 Cloudy with Heavy Thunderstorms 65 18.6 58 14.3 76 76 W 18 30 29.97 1015 2.5 4.02335 0.47 11.938
12:35 am 00:35 Cloudy with Thunderstorms 64 17.8 58 14.4 81 81 SE 23 37 29.91 1013 3 4.82802 0.77 19.558
12:55 am 00:55 Windy with Storms Likely 66 18.7 57 14.1 75 75 S 21 33 29.94 1014 10 16.0934 0.81 20.574
1:15 am 01:15 Windy with Storms Likely 64 17.7 59 14.9 84 84 SSE 22 35 29.88 1012 10 16.0934 0 0
1:35 am 01:35 Cloudy with Light Rain 65 18.6 58 14.6 78 78 SE 15 24 29.85 1011 10 16.0934 0 0
1:55 am 01:55 Mostly Cloudy with Nearby Thunderstorms 65 18.1 58 14.7 81 81 Calm 29.91 1013 10 16.0934 0 0
2:15 am 02:15 Cloudy with Heavy Thunderstorms 64 17.8 59 15.1 84 84 SSE 6 9 29.94 1014 2.5 4.02335 0.29 7.366
2:35 am 02:35 Cloudy with Heavy Thunderstorms 65 18.4 59 14.9 80 80 S 10 17 29.97 1015 3 4.82802 0.46 11.684
2:55 am 02:55 Cloudy with Light Thunderstorms 64 18 59 15 83 83 ESE 17 28 29.94 1014 10 16.0934 0.47 11.938
3:15 am 03:15 Cloudy 64 17.5 60 15.3 87 87 SSE 10 17 29.94 1014 10 16.0934 0.02 0.508
3:35 am 03:35 Cloudy with Nearby Thunderstorms 65 18.1 59 15.1 83 83 SSE 10 17 29.91 1013 10 16.0934 0.02 0.508
3:55 am 03:55 Cloudy with Thunderstorms 65 18.3 59 15.2 82 82 SSE 6 9 29.91 1013 10 16.0934 0.02 0.508
4:15 am 04:15 Partly Cloudy 65 18.1 59 15 82 82 SSE 10 17 29.88 1012 10 16.0934 0 0
4:35 am 04:35 Clear 64 18 59 15 83 83 SE 12 19 29.88 1012 10 16.0934 0 0
4:55 am 04:55 Clear 64 17.8 59 15 84 84 SE 10 17 29.91 1013 10 16.0934 0 0
5:15 am 05:15 Clear 63 17.2 58 14.7 85 85 SSE 8 13 29.91 1013 10 16.0934 0 0
5:35 am 05:35 Clear 63 17 58 14.5 85 85 SE 5 7 29.91 1013 10 16.0934 0 0
5:55 am 05:55 Clear 63 17 58 14.3 84 84 SSE 5 7 29.91 1013 10 16.0934 0 0
6:15 am 06:15 Clear 63 17 58 14.2 84 84 S 7 11 29.91 1013 10 16.0934 0 0
6:35 am 06:35 Sunny 63 17 58 14.2 84 84 S 8 13 29.91 1013 10 16.0934 0 0
6:55 am 06:55 Sunny 63 17.4 58 14.3 82 82 S 8 13 29.91 1013 10 16.0934 0 0
7:15 am 07:15 Sunny 65 18.1 58 14.6 80 80 S 10 17 29.91 1013 10 16.0934 0 0
7:35 am 07:35 Sunny 67 19.6 59 14.9 74 74 S 10 17 29.88 1012 10 16.0934 0 0
7:55 am 07:55 Sunny 69 20.4 59 15.1 72 72 S 8 13 29.88 1012 10 16.0934 0 0
8:15 am 08:15 Sunny 70 21.1 60 15.7 71 71 S 8 13 29.88 1012 10 16.0934 0 0
8:35 am 08:35 Sunny 72 22.3 63 17 72 72 S 9 15 29.88 1012 10 16.0934 0 0
8:55 am 08:55 Sunny 74 23.2 64 17.9 72 72 S 10 17 29.85 1011 10 16.0934 0 0
9:15 am 09:15 Sunny 75 23.8 65 18.3 71 71 S 12 19 29.85 1011 10 16.0934 0 0
9:35 am 09:35 Sunny 76 24.5 66 18.8 71 71 S 13 20 29.85 1011 10 16.0934 0 0
9:55 am 09:55 Sunny 77 25.2 66 18.9 68 68 S 12 19 29.85 1011 10 16.0934 0 0
10:15 am 10:15 Sunny 79 25.9 67 19.2 67 67 SSW 9 15 29.85 1011 10 16.0934 0 0
10:35 am 10:35 Sunny 79 26.2 67 19.5 67 67 SSW 8 13 29.85 1011 10 16.0934 0 0
10:55 am 10:55 Sunny 80 26.5 67 19.6 66 66 S 7 11 29.83 1010 10 16.0934 0 0
11:15 am 11:15 Sunny 81 27.2 67 19.7 64 64 SW 7 11 29.83 1010 10 16.0934 0 0
11:35 am 11:35 Sunny 81 27.3 68 20.2 65 65 SW 3 6 29.83 1010 10 16.0934 0 0
11:55 am 11:55 Sunny 81 27.3 68 20.2 65 65 S 5 7 29.85 1011 10 16.0934 0 0
12:15 pm 12:15 Partly Cloudy 82 27.8 68 20 63 63 Calm 29.85 1011 10 16.0934 0 0
12:35 pm 12:35 Partly Cloudy 82 27.7 68 20.2 64 64 Calm 29.85 1011 10 16.0934 0 0
12:55 pm 12:55 Partly Cloudy 82 27.5 68 20.1 64 64 Calm 29.85 1011 10 16.0934 0 0
1:15 pm 13:15 Partly Cloudy 83 28.1 68 20.1 62 62 E 5 7 29.83 1010 10 16.0934 0 0
1:35 pm 13:35 Sunny 83 28.5 69 20.7 63 63 E 3 6 29.83 1010 10 16.0934 0 0
1:55 pm 13:55 Partly Cloudy 83 28.3 69 20.7 63 63 ESE 3 6 29.83 1010 10 16.0934 0 0
2:15 pm 14:15 Partly Cloudy 85 29.3 69 20.7 60 60 ESE 6 9 29.83 1010 10 16.0934 0 0
2:35 pm 14:35 Partly Cloudy 85 29.5 69 20.8 60 60 ESE 8 13 29.83 1010 10 16.0934 0 0
2:55 pm 14:55 Partly Cloudy 85 29.6 69 20.7 59 59 SE 7 11 29.83 1010 10 16.0934 0 0
3:15 pm 15:15 Partly Cloudy 86 30 69 20.7 57 57 SE 8 13 29.83 1010 10 16.0934 0 0
3:35 pm 15:35 Partly Cloudy 86 30.1 69 20.8 57 57 ESE 9 15 29.83 1010 10 16.0934 0 0
3:55 pm 15:55 Sunny 87 30.5 69 20.6 55 55 ESE 8 13 29.8 1009 10 16.0934 0 0
4:15 pm 16:15 Sunny 87 30.4 69 20.8 56 56 E 8 13 29.83 1010 10 16.0934 0 0
4:35 pm 16:35 Sunny 87 30.3 69 20.6 56 56 E 7 11 29.83 1010 10 16.0934 0 0
4:55 pm 16:55 Sunny 87 30.5 70 21.2 58 58 E 10 17 29.77 1008 10 16.0934 0 0
5:15 pm 17:15 Sunny 87 30.6 71 21.7 59 59 E 9 15 29.77 1008 10 16.0934 0 0
5:35 pm 17:35 Sunny 87 30.6 71 21.6 59 59 ENE 8 13 29.77 1008 10 16.0934 0 0
5:55 pm 17:55 Sunny 87 30.5 71 21.6 59 59 E 7 11 29.77 1008 10 16.0934 0 0
6:15 pm 18:15 Sunny 86 30 72 22.1 63 63 ENE 8 13 29.77 1008 10 16.0934 0 0
6:35 pm 18:35 Sunny 84 28.9 72 22.3 68 68 ENE 6 9 29.8 1009 10 16.0934 0 0
6:55 pm 18:55 Sunny 83 28.5 73 23 72 72 ENE 6 9 29.8 1009 10 16.0934 0 0
7:15 pm 19:15 Sunny 83 28.1 73 23 74 74 ENE 6 9 29.8 1009 10 16.0934 0 0
7:35 pm 19:35 Sunny 82 27.5 74 23.2 77 77 ENE 6 9 29.8 1009 10 16.0934 0 0
7:55 pm 19:55 Sunny 81 27.3 74 23.3 79 79 ENE 7 11 29.8 1009 10 16.0934 0 0
8:15 pm 20:15 Sunny 83 28.4 73 22.6 71 71 ENE 8 13 29.8 1009 10 16.0934 0 0
8:35 pm 20:35 Sunny 82 28 73 22.5 72 72 ENE 8 13 29.8 1009 10 16.0934 0 0
8:55 pm 20:55 Sunny 81 27.2 73 23 78 78 ENE 9 15 29.8 1009 10 16.0934 0 0
9:15 pm 21:15 Clear 79 26.1 73 23 83 83 NE 7 11 29.77 1008 10 16.0934 0 0
9:35 pm 21:35 Clear 78 25.4 73 22.8 86 86 NNE 7 11 29.83 1010 10 16.0934 0 0
9:55 pm 21:55 Clear 76 24.5 73 22.6 89 89 NE 9 15 29.83 1010 10 16.0934 0 0
10:15 pm 22:15 Clear 77 24.8 73 22.5 87 87 NE 8 13 29.83 1010 10 16.0934 0 0
10:35 pm 22:35 Clear 77 24.8 72 22.3 86 86 ENE 9 15 29.83 1010 10 16.0934 0 0
10:55 pm 22:55 Clear 77 24.8 72 22.2 86 86 E 9 15 29.83 1010 10 16.0934 0 0
11:15 pm 23:15 Clear 76 24.5 72 22 86 86 E 6 9 29.83 1010 10 16.0934 0 0
11:35 pm 23:35 Clear 75 24 71 21.5 86 86 ESE 6 9 29.83 1010 10 16.0934 0 0
11:55 pm 23:55 Clear 74 23.2 70 21.1 88 88 ESE 5 7 29.83 1010 10 16.0934 0 0

Powered by AerisWeather